EW6388 Weather Reports


time (UTC)temp
C
wind
direction
speed
KPH
gust
KPH
rain 1hr
cm
rain 24hr
cm
rain mn
cm
humidity
%
barometer
mb
20260505184007 8 9 3.2 12.9 0.00 0.00 0.00 76 1014.7
20260505183507 8 348 4.8 11.3 0.00 0.00 0.00 76 1014.7
20260505183043 8 360 3.2 11.3 0.00 0.00 0.00 76 1014.7
20260505182503 8 335 3.2 12.9 0.00 0.00 0.00 76 1014.6
20260505182002 8 24 3.2 12.9 0.00 0.00 0.00 75 1014.6
20260505181507 8 294 4.8 8.0 0.00 0.00 0.00 75 1014.5
20260505181006 8 302 4.8 8.0 0.00 0.00 0.00 75 1014.6
20260505180504 9 288 1.6 14.5 0.00 0.00 0.00 74 1014.6
20260505180006 9 351 6.4 14.5 0.00 0.00 0.00 72 1014.6
20260505175503 9 352 3.2 14.5 0.00 0.00 0.00 72 1014.6
20260505175004 9 348 6.4 12.9 0.00 0.00 0.00 72 1014.5
20260505174505 9 347 6.4 12.9 0.00 0.00 0.00 72 1014.5
20260505174004 9 9 3.2 12.9 0.00 0.00 0.00 72 1014.5
20260505173504 9 318 3.2 14.5 0.00 0.00 0.00 73 1014.5
20260505173003 9 352 6.4 16.1 0.00 0.00 0.00 72 1014.5
20260505172500 10 360 6.4 16.1 0.00 0.00 0.00 71 1014.4
20260505172003 10 40 9.7 16.1 0.00 0.00 0.00 72 1014.4
20260505171522 10 317 4.8 12.9 0.00 0.00 0.00 73 1014.4
20260505171003 10 360 4.8 12.9 0.00 0.00 0.00 72 1014.5
20260505170505 11 288 4.8 11.3 0.00 0.00 0.00 72 1014.5
20260505170013 11 278 4.8 11.3 0.00 0.00 0.00 73 1014.4
20260505165504 10 318 3.2 17.7 0.00 0.00 0.00 74 1014.5
20260505165003 10 339 6.4 17.7 0.00 0.00 0.00 75 1014.5
20260505164516 10 350 4.8 14.5 0.00 0.00 0.00 74 1014.6
20260505164003 10 312 4.8 14.5 0.00 0.00 0.00 76 1014.7
20260505163504 10 282 3.2 12.9 0.00 0.00 0.00 76 1014.7
20260505163009 10 297 6.4 12.9 0.00 0.00 0.00 76 1014.7
20260505162502 10 347 3.2 14.5 0.00 0.00 0.00 75 1014.6
20260505162004 10 19 3.2 14.5 0.00 0.00 0.00 78 1014.6
20260505161504 10 304 4.8 16.1 0.00 0.00 0.00 77 1014.5
20260505161004 10 307 6.4 17.7 0.00 0.00 0.00 75 1014.6
20260505160504 10 293 6.4 17.7 0.00 0.00 0.00 76 1014.6
20260505153018 10 330 4.8 16.1 0.00 0.00 0.00 73 1014.6
20260505152503 10 286 6.4 14.5 0.00 0.00 0.00 73 1014.6
20260505152006 10 350 4.8 14.5 0.00 0.00 0.00 73 1014.6
20260505151513 10 242 3.2 11.3 0.00 0.00 0.00 73 1014.6
20260505151007 10 291 4.8 12.9 0.00 0.00 0.00 72 1014.6
20260505150503 10 346 4.8 14.5 0.00 0.00 0.00 73 1014.8
20260505140509 10 9 14.5 22.5 0.00 0.00 0.00 72 1014.8
20260505125005 10 11 6.4 16.1 0.00 0.00 0.00 80 1014.9
20260505124507 9 346 1.6 14.5 0.00 0.00 0.00 82 1014.8
20260505124009 9 352 3.2 19.3 0.00 0.00 0.00 81 1014.8
20260505123503 9 11 8.0 19.3 0.00 0.00 0.00 80 1014.8
20260505123009 9 11 6.4 17.7 0.00 0.00 0.00 80 1014.8
20260505122504 9 360 9.7 19.3 0.00 0.00 0.00 79 1014.7
20260505122006 9 17 14.5 19.3 0.00 0.00 0.00 77 1014.7
20260505121515 10 360 12.9 17.7 0.00 0.00 0.00 76 1014.8
20260505121001 10 5 8.0 22.5 0.00 0.00 0.00 75 1014.7
20260505120508 11 360 11.3 22.5 0.00 0.00 0.00 74 1014.7
20260505120016 11 340 8.0 19.3 0.00 0.00 0.00 76 1014.7
20260505115507 11 246 6.4 22.5 0.00 0.00 0.00 78 1014.7
20260505115005 10 9 11.3 22.5 0.00 0.00 0.00 78 1014.9
20260505114520 10 350 4.8 16.1 0.00 0.00 0.00 81 1014.9
20260505114006 9 344 6.4 16.1 0.00 0.00 0.00 82 1015.0
20260505113505 8 295 4.8 14.5 0.00 0.00 0.00 82 1015.0
20260505113018 8 309 4.8 12.9 0.00 0.00 0.00 83 1015.1
20260505112507 8 341 6.4 14.5 0.00 0.00 0.00 82 1015.1
20260505112004 8 5 3.2 14.5 0.00 0.00 0.00 84 1015.2
20260505111517 8 290 3.2 16.1 0.00 0.00 0.00 83 1015.2
20260505111005 8 318 4.8 16.1 0.00 0.00 0.00 83 1015.3
20260505110507 8 5 4.8 17.7 0.00 0.00 0.00 83 1015.3
20260505102006 9 308 4.8 16.1 0.00 0.00 0.00 81 1015.1
20260505101519 9 5 4.8 16.1 0.00 0.00 0.00 79 1015.2
20260505101003 9 325 4.8 14.5 0.00 0.00 0.00 79 1015.2
20260505100506 9 12 6.4 14.5 0.00 0.00 0.00 80 1015.1
20260505100015 9 338 3.2 11.3 0.00 0.00 0.00 84 1015.1
20260505095505 9 296 4.8 14.5 0.00 0.00 0.00 82 1015.1
20260505095004 9 312 4.8 14.5 0.00 0.00 0.00 81 1015.1
20260505094514 9 352 4.8 16.1 0.00 0.00 0.00 80 1015.2
20260505094009 9 350 6.4 16.1 0.00 0.00 0.00 83 1015.2
20260505093511 9 346 1.6 12.9 0.00 0.00 0.00 87 1015.2
20260505093015 9 348 3.2 12.9 0.00 0.00 0.00 86 1015.2
20260505092511 8 347 4.8 12.9 0.00 0.00 0.00 87 1015.1
20260505092009 8 352 4.8 12.9 0.00 0.00 0.00 87 1015.2
20260505091529 8 360 3.2 8.0 0.00 0.00 0.00 88 1015.2
20260505091007 8 295 3.2 6.4 0.00 0.00 0.00 90 1015.2
20260505090509 8 347 3.2 11.3 0.00 0.00 0.00 89 1015.2
20260505090036 8 242 4.8 12.9 0.00 0.00 0.00 89 1015.2
20260505085505 8 337 4.8 12.9 0.00 0.00 0.00 89 1015.1
20260505085005 8 324 4.8 11.3 0.00 0.00 0.00 89 1015.1
20260505084520 8 247 4.8 11.3 0.00 0.00 0.00 89 1015.1
20260505084012 8 5 3.2 8.0 0.00 0.00 0.00 90 1015.2
20260505083507 8 349 0.0 11.3 0.00 0.00 0.00 90 1015.2
20260505083023 7 349 6.4 12.9 0.00 0.00 0.00 90 1015.1
20260505082506 7 360 6.4 12.9 0.00 0.00 0.00 90 1015.3
20260505082010 7 5 4.8 8.0 0.00 0.00 0.00 92 1015.3
20260505081529 7 33 1.6 6.4 0.00 0.00 0.00 93 1015.4
20260505081008 7 293 1.6 6.4 0.00 0.00 0.00 93 1015.3
20260505080508 7 317 1.6 6.4 0.00 0.00 0.00 94 1015.4
20260505080040 7 23 0.0 9.7 0.00 0.00 0.00 95 1015.4
20260505075506 7 10 4.8 9.7 0.00 0.00 0.00 96 1015.4
20260505075006 6 49 0.0 6.4 0.00 0.00 0.00 97 1015.3
20260505074521 6 351 1.6 4.8 0.00 0.00 0.00 97 1015.4
20260505074006 6 319 1.6 4.8 0.00 0.00 0.00 97 1015.3
20260505073507 6 185 0.0 3.2 0.00 0.00 0.00 97 1015.3
20260505073020 6 165 0.0 3.2 0.00 0.00 0.00 97 1015.4
20260505072507 6 184 1.6 3.2 0.00 0.00 0.00 97 1015.4
20260505072008 6 180 0.0 3.2 0.00 0.00 0.00 97 1015.5
20260505071522 6 180 0.0 1.6 0.00 0.00 0.00 97 1015.5
20260505071008 5 180 0.0 3.2 0.00 0.00 0.00 97 1015.5
20260505070511 5 188 1.6 3.2 0.00 0.00 0.00 97 1015.4
20260505070025 5 202 0.0 3.2 0.00 0.00 0.00 97 1015.5
20260505065508 5 210 0.0 3.2 0.00 0.00 0.00 97 1015.4
20260505065005 5 190 1.6 3.2 0.00 0.00 0.00 97 1015.5
20260505064522 5 193 0.0 3.2 0.00 0.00 0.00 97 1015.6
20260505064012 5 173 1.6 3.2 0.00 0.00 0.00 97 1015.5
20260505063511 5 215 1.6 3.2 0.00 0.00 0.00 97 1015.5
20260505063019 4 196 1.6 3.2 0.00 0.00 0.00 97 1015.5
20260505062009 3 185 0.0 3.2 0.00 0.00 0.00 97 1015.5
20260505061520 3 185 1.6 3.2 0.00 0.00 0.00 97 1015.5
20260505061012 3 208 1.6 3.2 0.00 0.00 0.00 97 1015.6
20260505060511 3 188 0.0 3.2 0.00 0.00 0.00 97 1015.5
20260505060027 3 197 1.6 3.2 0.00 0.00 0.00 97 1015.4
20260505055508 3 222 1.6 3.2 0.00 0.00 0.00 97 1015.3
20260505055012 2 209 1.6 3.2 0.00 0.00 0.00 97 1015.5
20260505054524 2 225 0.0 3.2 0.00 0.00 0.00 97 1015.4
20260505054007 2 225 0.0 3.2 0.00 0.00 0.00 97 1015.4
20260505053511 1 225 1.6 3.2 0.00 0.00 0.00 97 1015.4
20260505053022 1 227 0.0 6.4 0.00 0.00 0.00 96 1015.4
20260505052515 1 211 3.2 6.4 0.00 0.00 0.00 96 1015.3
20260505052006 1 234 0.0 4.8 0.00 0.00 0.00 96 1015.3
20260505051525 1 268 1.6 3.2 0.00 0.00 0.00 96 1015.3
20260505051007 1 122 0.0 3.2 0.00 0.00 0.00 95 1015.3
20260505050511 1 216 0.0 4.8 0.00 0.00 0.00 94 1015.3
20260505041540 1 225 1.6 4.8 0.00 0.00 0.00 95 1015.1
20260505041007 1 159 0.0 4.8 0.00 0.00 0.00 95 1015.1
20260505040512 1 223 3.2 4.8 0.00 0.00 0.00 95 1015.1
20260505040027 1 185 1.6 4.8 0.00 0.00 0.00 95 1015.0
20260505035507 1 190 0.0 4.8 0.00 0.00 0.00 95 1015.0
20260505035011 1 188 1.6 4.8 0.00 0.00 0.00 94 1015.0
20260505034523 2 212 0.0 4.8 0.00 0.00 0.00 95 1015.0
20260505034013 2 228 1.6 4.8 0.00 0.00 0.00 95 1015.1
20260505033510 2 222 3.2 4.8 0.00 0.00 0.00 95 1015.1
20260505033026 2 222 1.6 3.2 0.00 0.00 0.00 95 1015.0
20260505032508 2 226 1.6 3.2 0.00 0.00 0.00 95 1015.1
20260505032010 2 227 1.6 4.8 0.00 0.00 0.00 95 1015.0
20260505031522 2 207 1.6 4.8 0.00 0.00 0.00 94 1015.0
20260505031010 2 194 0.0 3.2 0.00 0.00 0.00 94 1015.1
20260505030509 2 223 0.0 3.2 0.00 0.00 0.00 94 1015.1
20260505030033 2 223 1.6 3.2 0.00 0.00 0.00 94 1015.1
20260505025507 2 211 0.0 3.2 0.00 0.00 0.00 94 1015.2
20260505025007 2 211 0.0 3.2 0.00 0.00 0.00 95 1015.2
20260505024527 2 213 0.0 0.0 0.00 0.00 0.00 95 1015.2
20260505024006 2 193 0.0 3.2 0.00 0.00 0.00 95 1015.2
20260505023508 2 204 0.0 3.2 0.00 0.00 0.00 94 1015.2
20260505023033 2 222 1.6 3.2 0.00 0.00 0.00 94 1015.3
20260505022508 2 209 1.6 3.2 0.00 0.00 0.00 93 1015.3
20260505022010 2 228 0.0 3.2 0.00 0.00 0.00 92 1015.3
20260505021527 3 228 0.0 3.2 0.00 0.00 0.00 94 1015.4
20260505021010 3 228 1.6 3.2 0.00 0.00 0.00 94 1015.4
20260505020506 3 228 0.0 3.2 0.00 0.00 0.00 93 1015.4
20260505020029 3 228 0.0 3.2 0.00 0.00 0.00 93 1015.5
20260505015517 3 228 0.0 3.2 0.00 0.00 0.00 93 1015.4
20260505015009 3 228 0.0 3.2 0.00 0.00 0.00 93 1015.4
20260505014527 3 228 1.6 3.2 0.00 0.00 0.00 92 1015.4
20260505014009 3 222 0.0 0.0 0.00 0.00 0.00 93 1015.5
20260505013508 4 222 0.0 0.0 0.00 0.00 0.00 92 1015.7
20260505013025 4 222 0.0 3.2 0.00 0.00 0.00 92 1015.7
20260505012514 5 222 0.0 3.2 0.00 0.00 0.00 93 1015.8
20260505012008 5 217 0.0 4.8 0.00 0.00 0.00 94 1015.8
20260505011529 5 228 0.0 4.8 0.00 0.00 0.00 93 1015.8
20260505011011 5 210 0.0 3.2 0.00 0.00 0.00 92 1015.9
20260505010509 5 227 0.0 3.2 0.00 0.00 0.00 93 1015.8
20260505010027 5 198 0.0 3.2 0.00 0.00 0.00 93 1015.8
20260505005505 5 212 0.0 3.2 0.00 0.00 0.00 93 1015.8
20260505005005 6 180 0.0 4.8 0.00 0.00 0.00 93 1015.8
20260505004527 6 186 1.6 4.8 0.00 0.00 0.00 93 1015.9
20260505004006 6 183 1.6 3.2 0.00 0.00 0.00 93 1015.9
20260505003505 6 173 1.6 3.2 0.00 0.00 0.00 92 1015.9
20260505003012 6 169 1.6 3.2 0.00 0.00 0.00 92 1015.9
20260505002507 6 175 0.0 3.2 0.00 0.00 0.00 91 1016.0
20260505002007 6 175 1.6 3.2 0.00 0.00 0.00 91 1016.0
20260505001510 6 238 0.0 3.2 0.00 0.00 0.00 92 1016.0
20260505001007 7 243 0.0 3.2 0.00 0.00 0.00 92 1015.9
20260505000507 7 241 0.0 3.2 0.00 0.00 0.00 92 1015.9
20260505000030 7 236 1.6 3.2 0.00 0.00 0.00 92 1015.9
20260504235506 7 210 0.0 0.0 0.00 0.00 0.00 92 1015.9
20260504235006 7 210 0.0 0.0 0.00 0.00 0.00 93 1015.9
20260504234511 7 210 0.0 0.0 0.00 0.00 0.00 93 1016.0
20260504234006 7 210 0.0 0.0 0.00 0.00 0.00 93 1016.0
20260504233508 7 210 0.0 0.0 0.00 0.00 0.00 93 1016.1
20260504233018 7 198 0.0 0.0 0.00 0.00 0.00 93 1016.0
20260504232507 7 198 0.0 0.0 0.00 0.00 0.00 93 1016.0
20260504232006 7 198 0.0 0.0 0.00 0.00 0.00 93 1016.1
20260504231519 7 181 0.0 0.0 0.00 0.00 0.00 93 1016.1
20260504231006 7 263 0.0 1.6 0.00 0.00 0.00 93 1016.1
20260504230508 7 263 0.0 1.6 0.00 0.00 0.00 93 1016.2
20260504230019 7 342 0.0 3.2 0.00 0.00 0.00 93 1016.2
20260504225510 7 17 1.6 3.2 0.00 0.00 0.00 93 1016.1
20260504225009 7 12 1.6 3.2 0.00 0.00 0.00 93 1016.2
20260504224514 7 234 0.0 3.2 0.00 0.00 0.00 93 1016.2
20260504224004 7 234 0.0 3.2 0.00 0.00 0.00 93 1016.2
20260504223508 7 192 0.0 0.0 0.00 0.00 0.00 93 1016.2
20260504223015 7 192 0.0 0.0 0.00 0.00 0.00 93 1016.2
20260504222505 7 192 0.0 0.0 0.00 0.00 0.00 93 1016.3
20260504222011 7 192 0.0 0.0 0.00 0.00 0.00 93 1016.3
20260504221522 7 192 0.0 0.0 0.00 0.00 0.00 92 1016.3
20260504221003 7 192 0.0 0.0 0.00 0.00 0.00 92 1016.3
20260504220508 7 192 0.0 0.0 0.00 0.00 0.00 92 1016.3
20260504220025 7 192 0.0 0.0 0.00 0.00 0.00 92 1016.4
20260504215507 7 192 0.0 0.0 0.00 0.00 0.00 92 1016.5
20260504215009 7 192 0.0 0.0 0.00 0.00 0.00 92 1016.5
20260504214523 7 192 0.0 0.0 0.00 0.00 0.00 92 1016.5
20260504214010 7 192 0.0 0.0 0.00 0.00 0.00 92 1016.6
20260504213503 7 225 0.0 0.0 0.00 0.00 0.00 92 1016.6
20260504213041 7 225 0.0 0.0 0.00 0.00 0.00 92 1016.6
20260504212507 7 217 0.0 0.0 0.00 0.00 0.00 91 1016.7
20260504212007 7 217 0.0 0.0 0.00 0.00 0.00 91 1016.7
20260504211518 7 217 0.0 0.0 0.00 0.00 0.00 91 1016.7
20260504211004 7 282 0.0 0.0 0.00 0.00 0.00 91 1016.7
20260504210508 7 282 0.0 0.0 0.00 0.00 0.00 90 1016.7
20260504210023 7 281 0.0 0.0 0.00 0.00 0.00 90 1016.7
20260504205507 7 282 0.0 0.0 0.00 0.00 0.00 89 1016.7
20260504205007 7 282 0.0 0.0 0.00 0.00 0.00 89 1016.7
20260504204523 7 282 0.0 0.0 0.00 0.00 0.00 88 1016.7
20260504204004 7 282 0.0 0.0 0.00 0.00 0.00 88 1016.5
20260504203511 7 282 0.0 3.2 0.00 0.00 0.00 88 1016.5
20260504203033 7 324 0.0 3.2 0.00 0.00 0.00 88 1016.5
20260504202507 7 318 0.0 1.6 0.00 0.00 0.00 88 1016.4
20260504202006 7 337 0.0 3.2 0.00 0.00 0.00 88 1016.4
20260504201531 7 338 0.0 3.2 0.00 0.00 0.00 87 1016.4
20260504201005 7 338 0.0 3.2 0.00 0.00 0.00 87 1016.4
20260504200510 8 340 0.0 4.8 0.00 0.00 0.00 87 1016.3
20260504200020 8 346 1.6 4.8 0.00 0.00 0.00 87 1016.2
20260504195506 8 327 0.0 6.4 0.00 0.00 0.00 88 1016.2
20260504195006 8 334 3.2 6.4 0.00 0.00 0.00 87 1016.2
20260504194521 8 352 4.8 6.4 0.00 0.00 0.00 87 1016.3
20260504194007 8 329 0.0 6.4 0.00 0.00 0.00 87 1016.2
20260504193509 8 352 1.6 6.4 0.00 0.00 0.00 88 1016.2
20260504193019 9 305 1.6 3.2 0.00 0.00 0.00 88 1016.1
20260504192509 9 331 0.0 3.2 0.00 0.00 0.00 88 1016.1
20260504192010 9 304 1.6 4.8 0.00 0.00 0.00 88 1016.1
20260504191528 9 346 1.6 4.8 0.00 0.00 0.00 88 1016.1
20260504191012 9 298 1.6 4.8 0.00 0.00 0.00 87 1016.0
20260504190507 9 21 1.6 6.4 0.00 0.00 0.00 87 1016.0
20260504190016 9 352 3.2 6.4 0.00 0.00 0.00 86 1016.0
20260504185510 9 338 3.2 8.0 0.00 0.00 0.00 86 1016.0
20260504185002 10 295 3.2 8.0 0.00 0.00 0.00 86 1016.0
20260504184511 10 360 1.6 11.3 0.00 0.00 0.00 85 1016.0